[[{"header":{"parameterUnit":"m.s-1","parameterCategory":2,"la1":30.2991,"la2":30.254,"lo1":-89.0895,"lo2":-89.0444,"dy":0.0017,"dx":0.0017,"nx":28,"ny":28,"refTime":"2024-06-20T21:00:00:Z","depth":"0","parameterNumber":2,"parameterNumberName":"U-component_of_CURRENTS"},"data":[0,0,0,0,0,0,0,0,0,0,0,0,0,0,0,0,0,0,0,0,0,0,0,0,0,0,0,0,0,0,0,0,0,0,0,0,0,0,0,0,0,0,0,0,0,0,0,0,0,0,0,0,0,0,0,0,0,0,-0.2006,-0.2007,0,-0.2061,-0.2061,-0.2062,-0.2077,-0.2077,-0.2077,-0.2077,-0.2135,-0.2137,-0.2138,0,0,0,0,0,0,0,0,0,0,0,0,0,-0.1892,-0.1894,-0.2006,-0.2007,-0.2008,-0.2061,-0.2061,-0.2062,-0.2077,-0.2077,-0.2077,-0.2077,-0.2135,-0.2137,-0.2139,0,0,0,0,0,0,0,0,0,0,0,0,0,-0.1941,-0.1895,-0.2006,-0.2024,-0.2027,-0.2061,-0.2061,-0.2062,-0.2077,-0.2077,-0.2077,-0.2077,-0.2134,-0.2136,-0.2139,-0.2154,0,0,-0.2146,-0.2147,0,0,0,0,0,0,0,0,-0.1938,-0.1945,-0.2021,-0.2023,-0.2026,-0.2065,-0.2043,-0.2094,-0.2077,-0.2055,-0.2077,-0.2077,-0.2114,-0.2118,-0.2124,-0.2157,-0.2159,-0.2146,-0.2148,-0.2149,-0.2149,0,0,0,0,0,0,0,-0.1935,-0.1942,-0.2025,-0.2022,-0.2025,-0.2022,-0.2029,-0.2052,-0.2082,-0.2056,-0.2059,-0.207,-0.2115,-0.2122,-0.2126,-0.216,-0.2146,-0.2148,-0.215,-0.2151,-0.2262,-0.2263,0,0,0,0,0,0,-0.1936,-0.194,-0.2023,-0.2027,-0.1985,-0.2025,-0.2032,-0.205,-0.2081,-0.2087,-0.207,-0.207,-0.2118,-0.2123,-0.2128,-0.2179,-0.2149,-0.2151,-0.2152,-0.226,-0.2262,-0.2264,0,0,0,0,0,0,-0.1933,-0.1943,-0.2021,-0.1986,-0.1996,-0.2027,-0.2047,-0.2051,-0.206,-0.2092,-0.2097,-0.2075,-0.2118,-0.2124,-0.2162,-0.218,-0.2152,-0.2154,-0.2258,-0.2261,-0.2263,-0.2262,0,0,0,0,0,0,-0.193,-0.1942,-0.1955,-0.1987,-0.1998,-0.2042,-0.2047,-0.2052,-0.2069,-0.207,-0.2098,-0.2104,-0.2118,-0.2159,-0.2165,-0.2183,-0.2156,-0.2256,-0.2259,-0.2262,-0.226,-0.2264,-0.2268,0,0,0,0,0,-0.1926,-0.1948,-0.1956,-0.1966,-0.2016,-0.2043,-0.2048,-0.2067,-0.2069,-0.2074,-0.2103,-0.2103,-0.2181,-0.2162,-0.2168,-0.2188,-0.2255,-0.2258,-0.2262,-0.2259,-0.2264,-0.2268,0,0,0,0,0,0,-0.1902,-0.1952,-0.1962,-0.1997,-0.2017,-0.2047,-0.2057,-0.2068,-0.2093,-0.2096,-0.2118,-0.2126,-0.217,-0.2182,-0.216,-0.2232,-0.222,-0.2225,-0.2216,-0.222,-0.2224,-0.2214,-0.2158,0,0,0,0,0,-0.1904,-0.1938,-0.1971,-0.1998,-0.2006,-0.2029,-0.2042,-0.2056,-0.2083,-0.2093,-0.2116,-0.2149,-0.2189,-0.2205,-0.2238,-0.2271,-0.2279,-0.2291,-0.2295,-0.2298,-0.2297,-0.2352,-0.236,-0.2275,-0.2275,-0.2275,0,0,-0.19,-0.1936,-0.1952,-0.1996,-0.201,-0.2032,-0.2036,-0.2057,-0.2079,-0.2097,-0.2131,-0.2162,-0.2203,-0.2246,-0.2266,-0.2256,-0.232,-0.2302,-0.2304,-0.2302,-0.2357,-0.2365,-0.2372,-0.2277,-0.2277,-0.2276,0,0,-0.1912,-0.1938,-0.1965,-0.1989,-0.2022,-0.2035,-0.2041,-0.207,-0.2082,-0.212,-0.2147,-0.2192,-0.2237,-0.2276,-0.2301,-0.2346,-0.2341,-0.2354,-0.2359,-0.2413,-0.242,-0.2426,-0.2413,-0.2419,-0.2351,-0.2352,-0.2352,0,-0.1901,-0.1954,-0.1973,-0.2006,-0.2027,-0.2036,-0.2059,-0.2074,-0.2115,-0.2135,-0.2132,-0.2232,-0.2257,-0.2328,-0.2338,-0.2354,-0.2358,-0.2334,-0.2416,-0.2423,-0.2429,-0.2415,-0.2421,-0.2352,-0.2352,-0.2352,-0.2352,0,-0.1941,-0.1977,-0.1992,-0.2039,-0.2054,-0.208,-0.2099,-0.2116,-0.2129,-0.2155,-0.2221,-0.2265,-0.2324,-0.2342,-0.2347,-0.2413,-0.2389,-0.2415,-0.2398,-0.2437,-0.242,-0.2426,-0.2352,-0.2352,-0.2352,-0.2352,0,0,-0.1937,-0.2005,-0.2013,-0.2034,-0.2078,-0.209,-0.2119,-0.2154,-0.2176,-0.222,-0.2266,-0.2334,-0.2354,-0.2384,-0.2409,-0.2446,-0.2477,-0.2437,-0.244,-0.241,-0.2545,-0.2422,-0.2416,-0.2516,-0.2518,-0.2519,-0.25,0,-0.1963,-0.2025,-0.2054,-0.2094,-0.2119,-0.2136,-0.2156,-0.2186,-0.2214,-0.2256,-0.2313,-0.2365,-0.2371,-0.2398,-0.2441,-0.2478,-0.2499,-0.2476,-0.2523,-0.2523,-0.24,-0.2422,-0.2264,-0.2226,-0.2506,-0.2507,-0.2508,0,-0.2002,-0.2041,-0.2085,-0.2123,-0.213,-0.2148,-0.2181,-0.2203,-0.2258,-0.2282,-0.235,-0.2387,-0.2452,-0.2451,-0.2531,-0.2513,-0.2522,-0.2541,-0.2542,-0.2433,-0.2413,-0.2242,-0.2226,-0.2139,-0.2517,-0.2516,-0.2516,0,-0.1997,-0.2063,-0.2095,-0.2115,-0.2153,-0.2165,-0.2177,-0.2218,-0.2237,-0.2304,-0.2336,-0.2418,-0.2458,-0.2512,-0.2539,-0.2539,-0.2605,-0.262,-0.2515,-0.2504,-0.2381,-0.2355,-0.2277,-0.2673,-0.2673,-0.2673,-0.2673,0,-0.2023,-0.2046,-0.2096,-0.2112,-0.2141,-0.2159,-0.2186,-0.221,-0.2253,-0.2295,-0.2349,-0.24,-0.2477,-0.2523,-0.2547,-0.2531,-0.2617,-0.2506,-0.2501,-0.237,-0.2346,-0.2274,-0.2316,-0.2672,-0.2672,-0.2673,-0.2673,0,-0.2006,-0.2043,-0.2081,-0.2125,-0.214,-0.2153,-0.2185,-0.2211,-0.2241,-0.2302,-0.2324,-0.239,-0.2436,-0.2485,-0.2553,-0.2519,-0.247,-0.251,-0.2308,-0.2279,-0.2065,-0.2114,-0.2119,-0.2062,-0.2374,-0.2371,-0.2368,0,-0.2003,-0.2024,-0.2084,-0.2111,-0.2131,-0.2159,-0.2185,-0.2208,-0.2243,-0.2303,-0.2341,-0.238,-0.2404,-0.2413,-0.2368,-0.2347,-0.2376,-0.2173,-0.2151,-0.2014,-0.2069,-0.2133,-0.2091,-0.1977,-0.1972,-0.1967,-0.1964,0,-0.199,-0.201,-0.2038,-0.2102,-0.2137,-0.2176,-0.2216,-0.2234,-0.2274,-0.2307,-0.2339,-0.2343,-0.2302,-0.2198,-0.2132,-0.2095,-0.2073,-0.2075,-0.2018,-0.1811,-0.18,-0.1752,-0.1993,-0.1923,-0.1927,-0.193,-0.1932,-0.1934,-0.198,-0.1986,-0.203,-0.208,-0.2139,-0.2186,-0.2193,-0.2239,-0.226,-0.2295,-0.232,-0.2299,-0.2124,-0.1986,-0.1891,-0.1607,-0.1802,-0.1543,-0.1627,-0.1713,-0.1618,-0.1725,-0.1604,-0.1606,-0.1608,-0.161,-0.1611,0,-0.1961,-0.1962,-0.201,-0.2067,-0.2128,-0.2161,-0.221,-0.22,-0.2212,-0.2249,-0.2248,-0.2121,-0.1879,-0.1679,-0.1347,-0.1198,-0.1172,-0.1159,-0.1214,-0.1204,-0.1335,-0.1268,-0.0967,-0.0967,-0.0967,-0.0967,-0.0967,-0.0967,-0.1946,-0.195,-0.1959,-0.2029,-0.2088,-0.2114,-0.2126,-0.2113,-0.2114,-0.2076,-0.2042,-0.2026,-0.1764,-0.1482,-0.1078,-0.0954,-0.0942,-0.0922,-0.1006,-0.1072,-0.1114,-0.1155,-0.1094,-0.0761,-0.0762,-0.0768,-0.0768,-0.0768]},{"header":{"parameterUnit":"m.s-1","parameterCategory":2,"la1":30.2991,"la2":30.254,"lo1":-89.0895,"lo2":-89.0444,"dy":0.0017,"dx":0.0017,"nx":28,"ny":28,"refTime":"2024-06-20T21:00:00:Z","depth":"0","parameterNumber":3,"parameterNumberName":"V-component_of_CURRENTS"},"data":[0,0,0,0,0,0,0,0,0,0,0,0,0,0,0,0,0,0,0,0,0,0,0,0,0,0,0,0,0,0,0,0,0,0,0,0,0,0,0,0,0,0,0,0,0,0,0,0,0,0,0,0,0,0,0,0,0,0,-0.1913,-0.1913,0,-0.1831,-0.183,-0.1829,-0.1806,-0.1807,-0.1808,-0.1809,-0.1694,-0.169,-0.1687,0,0,0,0,0,0,0,0,0,0,0,0,0,-0.1911,-0.1912,-0.1913,-0.1912,-0.1912,-0.1832,-0.183,-0.1829,-0.1806,-0.1807,-0.1808,-0.1809,-0.1695,-0.1691,-0.1686,0,0,0,0,0,0,0,0,0,0,0,0,0,-0.1877,-0.1912,-0.1913,-0.1893,-0.189,-0.1832,-0.183,-0.1828,-0.1806,-0.1807,-0.1808,-0.1809,-0.1697,-0.1691,-0.1686,-0.1631,0,0,-0.1669,-0.1666,0,0,0,0,0,0,0,0,-0.1879,-0.1877,-0.1897,-0.1894,-0.1891,-0.1832,-0.1787,-0.1761,-0.1806,-0.1835,-0.1809,-0.181,-0.1738,-0.1729,-0.1708,-0.1625,-0.162,-0.1668,-0.1665,-0.1663,-0.1661,0,0,0,0,0,0,0,-0.1882,-0.1879,-0.1878,-0.1896,-0.1892,-0.184,-0.1837,-0.1782,-0.1779,-0.1833,-0.1832,-0.1826,-0.1736,-0.1714,-0.1705,-0.1619,-0.1669,-0.1664,-0.166,-0.1658,-0.1521,-0.1521,0,0,0,0,0,0,-0.1903,-0.1882,-0.1881,-0.1876,-0.189,-0.184,-0.1837,-0.1848,-0.178,-0.1772,-0.1825,-0.1826,-0.1723,-0.1712,-0.1701,-0.1679,-0.1663,-0.1657,-0.1654,-0.1521,-0.1521,-0.152,0,0,0,0,0,0,-0.1904,-0.1904,-0.1884,-0.1878,-0.1872,-0.184,-0.1852,-0.1846,-0.1811,-0.1776,-0.1767,-0.1797,-0.1723,-0.1709,-0.1705,-0.1672,-0.1655,-0.165,-0.1522,-0.1521,-0.1521,-0.1603,0,0,0,0,0,0,-0.1904,-0.1906,-0.1915,-0.188,-0.1874,-0.1845,-0.1851,-0.1844,-0.1809,-0.1807,-0.1748,-0.1739,-0.1723,-0.1714,-0.17,-0.1665,-0.1646,-0.1522,-0.1521,-0.1521,-0.1601,-0.1605,-0.1609,0,0,0,0,0,-0.1905,-0.1915,-0.1916,-0.1915,-0.189,-0.1844,-0.1834,-0.1813,-0.1806,-0.1785,-0.1796,-0.1741,-0.1698,-0.1711,-0.1694,-0.1656,-0.1522,-0.1522,-0.1521,-0.1599,-0.1604,-0.1609,0,0,0,0,0,0,-0.1903,-0.1912,-0.1913,-0.1922,-0.1885,-0.1841,-0.1833,-0.1799,-0.1782,-0.1804,-0.1759,-0.1752,-0.1728,-0.1682,-0.1698,-0.1613,-0.1589,-0.1585,-0.1653,-0.1658,-0.1663,-0.17,-0.1641,0,0,0,0,0,-0.1912,-0.1933,-0.1908,-0.191,-0.1906,-0.1862,-0.1839,-0.1825,-0.1807,-0.1798,-0.1757,-0.1728,-0.1707,-0.1683,-0.1653,-0.161,-0.1574,-0.1565,-0.1569,-0.1574,-0.1591,-0.153,-0.1531,-0.1518,-0.1518,-0.1518,0,0,-0.1921,-0.1919,-0.1935,-0.1912,-0.1896,-0.1889,-0.1851,-0.1831,-0.1821,-0.1789,-0.177,-0.1742,-0.1703,-0.1682,-0.166,-0.1642,-0.1559,-0.1573,-0.1577,-0.1593,-0.1529,-0.153,-0.1532,-0.1518,-0.1518,-0.1518,0,0,-0.1934,-0.1942,-0.1966,-0.1942,-0.1921,-0.1902,-0.1891,-0.1847,-0.1829,-0.1812,-0.1798,-0.1775,-0.1707,-0.169,-0.1671,-0.1669,-0.1592,-0.1624,-0.1666,-0.1606,-0.1607,-0.1607,-0.1574,-0.157,-0.1617,-0.1617,-0.1617,0,-0.1946,-0.1957,-0.1953,-0.1954,-0.194,-0.191,-0.1907,-0.1889,-0.1842,-0.1841,-0.1823,-0.1763,-0.1717,-0.1706,-0.1717,-0.1677,-0.1643,-0.1655,-0.1614,-0.1613,-0.1612,-0.1578,-0.1573,-0.1621,-0.162,-0.162,-0.1619,0,-0.1972,-0.1973,-0.1979,-0.1991,-0.1972,-0.196,-0.1946,-0.1932,-0.1909,-0.189,-0.1866,-0.1824,-0.1791,-0.1747,-0.174,-0.1698,-0.1678,-0.1636,-0.1608,-0.1619,-0.1581,-0.1575,-0.1626,-0.1625,-0.1624,-0.1623,0,0,-0.2021,-0.2007,-0.2004,-0.2001,-0.1986,-0.1973,-0.1987,-0.1977,-0.199,-0.1948,-0.1945,-0.1901,-0.1876,-0.1854,-0.1804,-0.1748,-0.1709,-0.1696,-0.1691,-0.1679,-0.1595,-0.1481,-0.1463,-0.1658,-0.1657,-0.1656,-0.1576,0,-0.2036,-0.2038,-0.2022,-0.2021,-0.2026,-0.2011,-0.2012,-0.2014,-0.2009,-0.2007,-0.1975,-0.1954,-0.1915,-0.1892,-0.1843,-0.1749,-0.1695,-0.1736,-0.1573,-0.157,-0.1479,-0.1453,-0.1354,-0.1265,-0.1569,-0.1568,-0.1568,0,-0.2064,-0.2055,-0.2055,-0.2034,-0.2036,-0.2034,-0.2048,-0.2048,-0.207,-0.2062,-0.2068,-0.2043,-0.2003,-0.1939,-0.1813,-0.1843,-0.1735,-0.1649,-0.1643,-0.1506,-0.1443,-0.1298,-0.1241,-0.1007,-0.1557,-0.1558,-0.1559,0,-0.2096,-0.2075,-0.2068,-0.2062,-0.2049,-0.205,-0.2051,-0.2072,-0.2086,-0.2106,-0.2107,-0.2084,-0.2035,-0.1937,-0.1797,-0.1797,-0.1637,-0.1604,-0.1405,-0.1397,-0.1266,-0.1247,-0.0975,-0.149,-0.1491,-0.1491,-0.1491,0,-0.2109,-0.2098,-0.208,-0.2082,-0.2083,-0.2071,-0.2094,-0.21,-0.2124,-0.2149,-0.2135,-0.2121,-0.2021,-0.1934,-0.1821,-0.1604,-0.1653,-0.1413,-0.1358,-0.129,-0.1275,-0.1027,-0.0957,-0.1488,-0.1488,-0.1489,-0.149,0,-0.2119,-0.211,-0.2115,-0.2106,-0.2101,-0.211,-0.2122,-0.2158,-0.2149,-0.2179,-0.2182,-0.2139,-0.2023,-0.1918,-0.1735,-0.1587,-0.1267,-0.1319,-0.1264,-0.1202,-0.0782,-0.0724,-0.047,-0.0357,-0.109,-0.1086,-0.1083,0,-0.2122,-0.2124,-0.2139,-0.2161,-0.2148,-0.216,-0.2184,-0.2184,-0.2224,-0.2181,-0.2201,-0.2096,-0.2041,-0.1755,-0.1503,-0.1283,-0.1129,-0.0989,-0.0949,-0.0731,-0.0626,-0.0616,-0.0541,-0.0822,-0.0817,-0.0813,-0.081,0,-0.2115,-0.2125,-0.2117,-0.2181,-0.221,-0.225,-0.2276,-0.2304,-0.2303,-0.2294,-0.2251,-0.2192,-0.1894,-0.1617,-0.1283,-0.11,-0.0801,-0.0895,-0.0671,-0.0389,-0.0361,-0.0235,-0.0932,-0.0775,-0.0778,-0.0781,-0.0783,-0.0784,-0.2111,-0.2095,-0.2118,-0.2169,-0.2242,-0.233,-0.2371,-0.2395,-0.2423,-0.2409,-0.2327,-0.2202,-0.1702,-0.1233,-0.1004,-0.0391,-0.0516,-0.0196,-0.0148,-0.0162,-0.0018,-0.0644,-0.0415,-0.0416,-0.0417,-0.0418,-0.0419,0,-0.2078,-0.2057,-0.2113,-0.2195,-0.2312,-0.2344,-0.2429,-0.2469,-0.2498,-0.2433,-0.2389,-0.1887,-0.1381,-0.0847,-0.0047,0.0305,0.0365,0.049,0.0536,0.0573,0.0044,0.0098,0.0452,0.0452,0.0451,0.0451,0.0451,0.0451,-0.2046,-0.2039,-0.2055,-0.2222,-0.232,-0.246,-0.2517,-0.2558,-0.253,-0.234,-0.2086,-0.1867,-0.0997,0.01,0.0862,0.0963,0.1173,0.1182,0.1254,0.0919,0.0858,0.08,0.0873,0.1383,0.1384,0.1779,0.1783,0.1787]}],[{"header":{"parameterUnit":"m.s-1","parameterCategory":2,"la1":30.2991,"la2":30.254,"lo1":-89.0895,"lo2":-89.0444,"dy":0.0017,"dx":0.0017,"nx":28,"ny":28,"refTime":"2024-06-20T21:00:00:Z","depth":"2","parameterNumber":2,"parameterNumberName":"U-component_of_CURRENTS"},"data":[0,0,0,0,0,0,0,0,0,0,0,0,0,0,0,0,0,0,0,0,0,0,0,0,0,0,0,0,0,0,0,0,0,0,0,0,0,0,0,0,0,0,0,0,0,0,0,0,0,0,0,0,0,0,0,0,0,0,-0.1348,-0.1348,0,-0.1375,-0.1375,-0.1375,-0.1403,-0.1403,-0.1404,-0.1404,-0.1464,-0.1465,-0.1466,0,0,0,0,0,0,0,0,0,0,0,0,0,-0.1313,-0.1314,-0.1348,-0.1348,-0.1349,-0.1375,-0.1375,-0.1375,-0.1403,-0.1403,-0.1404,-0.1404,-0.1464,-0.1465,-0.1466,0,0,0,0,0,0,0,0,0,0,0,0,0,-0.1332,-0.1314,-0.1348,-0.1366,-0.1368,-0.1375,-0.1375,-0.1375,-0.1403,-0.1403,-0.1404,-0.1405,-0.1463,-0.1465,-0.1467,-0.1464,0,0,-0.1472,-0.1473,0,0,0,0,0,0,0,0,-0.1331,-0.1333,-0.1363,-0.1365,-0.1367,-0.1387,-0.1385,-0.1407,-0.1402,-0.1389,-0.1404,-0.1405,-0.1441,-0.1445,-0.1447,-0.1466,-0.1469,-0.1472,-0.1473,-0.1474,-0.1474,0,0,0,0,0,0,0,-0.133,-0.1332,-0.1358,-0.1364,-0.1366,-0.1371,-0.1374,-0.1389,-0.1411,-0.139,-0.1392,-0.1396,-0.1443,-0.1445,-0.1448,-0.147,-0.1472,-0.1474,-0.1475,-0.1475,-0.1653,-0.1656,0,0,0,0,0,0,-0.1328,-0.1331,-0.1357,-0.1359,-0.1351,-0.1371,-0.1375,-0.1379,-0.141,-0.1415,-0.1396,-0.1398,-0.1442,-0.1446,-0.1451,-0.1558,-0.1474,-0.1476,-0.1477,-0.1649,-0.1654,-0.1658,0,0,0,0,0,0,-0.1327,-0.133,-0.1356,-0.1346,-0.135,-0.1371,-0.1376,-0.1379,-0.1406,-0.1414,-0.142,-0.1421,-0.1442,-0.1448,-0.1503,-0.1557,-0.1476,-0.1478,-0.1645,-0.165,-0.1656,-0.1704,0,0,0,0,0,0,-0.1326,-0.1329,-0.1338,-0.1346,-0.135,-0.1372,-0.1375,-0.1379,-0.1406,-0.141,-0.1438,-0.1442,-0.1443,-0.1501,-0.1505,-0.1558,-0.1479,-0.164,-0.1647,-0.1654,-0.1697,-0.171,-0.1721,0,0,0,0,0,-0.1324,-0.1336,-0.1339,-0.1342,-0.136,-0.1372,-0.1375,-0.1391,-0.1407,-0.1418,-0.1457,-0.1443,-0.1549,-0.1504,-0.1509,-0.1563,-0.1637,-0.1645,-0.1653,-0.1692,-0.1708,-0.1721,0,0,0,0,0,0,-0.1321,-0.134,-0.1343,-0.1358,-0.1369,-0.1378,-0.1392,-0.1405,-0.1442,-0.1455,-0.1469,-0.1477,-0.1549,-0.1557,-0.1508,-0.1643,-0.1599,-0.1608,-0.1627,-0.1642,-0.1653,-0.1641,-0.1481,0,0,0,0,0,-0.1324,-0.134,-0.1351,-0.1362,-0.1372,-0.1387,-0.1398,-0.1409,-0.1437,-0.1454,-0.1475,-0.1523,-0.1583,-0.1611,-0.1645,-0.1704,-0.1706,-0.1754,-0.1766,-0.1775,-0.1774,-0.1851,-0.1868,-0.1685,-0.1684,-0.1684,0,0,-0.1321,-0.1336,-0.1342,-0.1363,-0.1375,-0.139,-0.1396,-0.1418,-0.1452,-0.1455,-0.1514,-0.1552,-0.1608,-0.1681,-0.1716,-0.1696,-0.1826,-0.1785,-0.1793,-0.1787,-0.1861,-0.1879,-0.1894,-0.169,-0.1689,-0.1688,0,0,-0.1313,-0.1342,-0.1345,-0.136,-0.1384,-0.1405,-0.1418,-0.144,-0.1477,-0.1532,-0.1565,-0.1637,-0.17,-0.1758,-0.1799,-0.19,-0.188,-0.1925,-0.1975,-0.205,-0.2064,-0.2077,-0.2074,-0.2086,-0.1937,-0.1937,-0.1937,0,-0.1301,-0.132,-0.1347,-0.1355,-0.1382,-0.1417,-0.1434,-0.1475,-0.1515,-0.1574,-0.1562,-0.172,-0.1743,-0.1879,-0.191,-0.1923,-0.1936,-0.1907,-0.2061,-0.2074,-0.2086,-0.208,-0.2093,-0.194,-0.194,-0.1939,-0.1939,0,-0.129,-0.1314,-0.1323,-0.1355,-0.1387,-0.1412,-0.147,-0.1524,-0.1581,-0.1632,-0.1767,-0.1813,-0.191,-0.1945,-0.1949,-0.2077,-0.2044,-0.2056,-0.2011,-0.2107,-0.2095,-0.2107,-0.1945,-0.1944,-0.1943,-0.1942,0,0,-0.124,-0.1301,-0.1309,-0.1334,-0.1398,-0.1424,-0.1514,-0.1616,-0.1696,-0.1769,-0.1875,-0.1992,-0.2025,-0.2074,-0.2108,-0.217,-0.2243,-0.2146,-0.2148,-0.2115,-0.2359,-0.2188,-0.2184,-0.2285,-0.2289,-0.2291,-0.2303,0,-0.1223,-0.1256,-0.1299,-0.135,-0.1378,-0.1462,-0.1545,-0.1649,-0.1747,-0.1851,-0.197,-0.2063,-0.2078,-0.2117,-0.2195,-0.2228,-0.2284,-0.2235,-0.2294,-0.2294,-0.2111,-0.2197,-0.1941,-0.1918,-0.2315,-0.2317,-0.2318,0,-0.1207,-0.1235,-0.1289,-0.1379,-0.1402,-0.1447,-0.1614,-0.1679,-0.1854,-0.1931,-0.2068,-0.2134,-0.2252,-0.223,-0.2366,-0.2334,-0.235,-0.237,-0.2372,-0.2204,-0.2149,-0.1897,-0.1925,-0.2338,-0.2337,-0.2335,-0.2334,0,-0.1194,-0.1239,-0.1301,-0.1325,-0.1425,-0.1492,-0.1553,-0.1719,-0.1801,-0.1967,-0.2039,-0.2203,-0.2254,-0.2349,-0.238,-0.2384,-0.2485,-0.2498,-0.2368,-0.2353,-0.2139,-0.2099,-0.2598,-0.2598,-0.2598,-0.2598,-0.2598,0,-0.1191,-0.1237,-0.1298,-0.1332,-0.14,-0.1474,-0.1587,-0.168,-0.182,-0.1926,-0.206,-0.2152,-0.2288,-0.2361,-0.2402,-0.2397,-0.2511,-0.2376,-0.2362,-0.2144,-0.2107,-0.2481,-0.2468,-0.2599,-0.2598,-0.2598,-0.2598,0,-0.1204,-0.1246,-0.1288,-0.137,-0.1402,-0.1444,-0.1559,-0.1643,-0.1771,-0.1901,-0.1947,-0.2114,-0.2208,-0.2305,-0.2414,-0.2382,-0.2416,-0.2387,-0.2072,-0.202,-0.2226,-0.2215,-0.2255,-0.225,-0.2245,-0.2241,-0.2238,0,-0.1232,-0.1259,-0.1303,-0.1322,-0.1364,-0.1434,-0.1502,-0.1612,-0.1701,-0.1881,-0.1941,-0.2054,-0.2148,-0.2206,-0.2174,-0.2188,-0.2317,-0.1912,-0.1883,-0.2217,-0.22,-0.2197,-0.2193,-0.1612,-0.1604,-0.1598,-0.1592,0,-0.1266,-0.1278,-0.1323,-0.1338,-0.138,-0.1418,-0.1512,-0.1567,-0.1713,-0.1823,-0.1956,-0.2024,-0.2037,-0.193,-0.1874,-0.1837,-0.1888,-0.1772,-0.2247,-0.1725,-0.1608,-0.1592,-0.161,-0.1533,-0.1539,-0.1543,-0.1546,-0.1549,-0.1292,-0.132,-0.1362,-0.1363,-0.1399,-0.1424,-0.146,-0.157,-0.1676,-0.1832,-0.1899,-0.1918,-0.1795,-0.1635,-0.1528,-0.1391,-0.1558,-0.1431,-0.1454,-0.1483,-0.1393,-0.1274,-0.1115,-0.1118,-0.1121,-0.1123,-0.1126,0,-0.13,-0.1356,-0.1383,-0.1391,-0.1398,-0.1413,-0.1497,-0.1522,-0.1633,-0.1728,-0.1831,-0.1525,-0.1391,-0.1303,-0.1014,-0.0911,-0.0921,-0.0823,-0.0853,-0.0907,-0.0956,-0.0844,-0.0418,-0.0417,-0.0416,-0.0416,0,0,-0.1324,-0.1356,-0.136,-0.1366,-0.1392,-0.1399,-0.1428,-0.1468,-0.1512,-0.1509,-0.147,-0.1556,-0.1357,-0.1004,-0.0811,-0.0617,-0.0795,-0.0539,-0.1089,-0.1189,-0.1241,-0.1254,-0.1133,0,0,0,0,0]},{"header":{"parameterUnit":"m.s-1","parameterCategory":2,"la1":30.2991,"la2":30.254,"lo1":-89.0895,"lo2":-89.0444,"dy":0.0017,"dx":0.0017,"nx":28,"ny":28,"refTime":"2024-06-20T21:00:00:Z","depth":"2","parameterNumber":3,"parameterNumberName":"V-component_of_CURRENTS"},"data":[0,0,0,0,0,0,0,0,0,0,0,0,0,0,0,0,0,0,0,0,0,0,0,0,0,0,0,0,0,0,0,0,0,0,0,0,0,0,0,0,0,0,0,0,0,0,0,0,0,0,0,0,0,0,0,0,0,0,0.1096,0.1096,0,0.1131,0.1131,0.1132,0.1128,0.1128,0.1127,0.1126,0.1115,0.1115,0.1116,0,0,0,0,0,0,0,0,0,0,0,0,0,0.1049,0.105,0.1096,0.1096,0.1096,0.113,0.1131,0.1132,0.1128,0.1128,0.1127,0.1126,0.1115,0.1115,0.1116,0,0,0,0,0,0,0,0,0,0,0,0,0,0.1077,0.105,0.1096,0.1097,0.1097,0.113,0.1131,0.1132,0.1129,0.1128,0.1126,0.1125,0.1115,0.1115,0.1116,0.1142,0,0,0.1118,0.1118,0,0,0,0,0,0,0,0,0.1076,0.1079,0.1097,0.1097,0.1097,0.1122,0.111,0.1132,0.1129,0.1119,0.1126,0.1125,0.1112,0.1113,0.1126,0.1142,0.1141,0.1118,0.1118,0.1118,0.1119,0,0,0,0,0,0,0,0.1074,0.1078,0.1112,0.1097,0.1097,0.1103,0.1106,0.1115,0.1123,0.112,0.1119,0.112,0.1112,0.1126,0.1126,0.1141,0.1118,0.1118,0.1119,0.1119,0.1079,0.1078,0,0,0,0,0,0,0.1065,0.1076,0.1111,0.1113,0.1081,0.1105,0.1108,0.1117,0.1124,0.1123,0.1121,0.1119,0.1125,0.1125,0.1125,0.1069,0.1118,0.1119,0.1119,0.1081,0.1079,0.1077,0,0,0,0,0,0,0.1064,0.1068,0.1109,0.1093,0.1098,0.1106,0.1117,0.1118,0.1077,0.1124,0.1123,0.1071,0.1124,0.1124,0.112,0.1072,0.1119,0.112,0.1082,0.108,0.1078,0.1014,0,0,0,0,0,0,0.1063,0.1068,0.1053,0.1092,0.1098,0.1108,0.1118,0.112,0.1082,0.1079,0.1083,0.1084,0.1123,0.1119,0.1121,0.1074,0.112,0.1084,0.1081,0.1079,0.1018,0.101,0.1003,0,0,0,0,0,0.1061,0.1047,0.1053,0.1056,0.1085,0.1107,0.111,0.1114,0.1079,0.1069,0.1079,0.1081,0.1102,0.112,0.1122,0.1073,0.1085,0.1082,0.1079,0.1021,0.1011,0.1003,0,0,0,0,0,0,0.0993,0.1047,0.1053,0.1048,0.1066,0.1105,0.1083,0.1076,0.1074,0.1047,0.1082,0.1086,0.1068,0.1076,0.1094,0.1052,0.1085,0.1082,0.104,0.1031,0.1024,0.0991,0.1121,0,0,0,0,0,0.0979,0.0999,0.1034,0.1027,0.1024,0.1038,0.1033,0.1033,0.1045,0.1038,0.1051,0.1052,0.1065,0.105,0.1077,0.1049,0.1047,0.1012,0.1005,0.0998,0.0972,0.0962,0.0951,0.1067,0.1067,0.1067,0,0,0.0952,0.098,0.0989,0.1016,0.102,0.1014,0.1031,0.1006,0.0992,0.1037,0.1008,0.1035,0.1057,0.1051,0.1037,0.1041,0.0961,0.0994,0.0989,0.0966,0.0958,0.0947,0.0937,0.1065,0.1065,0.1065,0,0,0.0921,0.0924,0.0932,0.094,0.0942,0.0956,0.0931,0.0945,0.0935,0.0922,0.0957,0.0956,0.0956,0.0986,0.0992,0.0948,0.0938,0.0928,0.0845,0.0836,0.0827,0.0818,0.0788,0.0778,0.0905,0.0905,0.0905,0,0.0878,0.0891,0.093,0.0925,0.0909,0.0916,0.0887,0.0892,0.0904,0.0891,0.0893,0.0902,0.0927,0.092,0.0907,0.093,0.0908,0.0882,0.0826,0.0818,0.0811,0.0782,0.0771,0.0902,0.0902,0.0903,0.0903,0,0.0866,0.0849,0.0837,0.0847,0.084,0.0808,0.082,0.08,0.0771,0.0783,0.0761,0.0813,0.0808,0.0814,0.0842,0.0795,0.0792,0.0836,0.085,0.0795,0.0769,0.0758,0.0897,0.0898,0.0899,0.09,0,0,0.0814,0.0831,0.0812,0.0787,0.078,0.0764,0.0736,0.0719,0.0672,0.0683,0.0636,0.0669,0.0675,0.0683,0.0721,0.0703,0.0643,0.0719,0.072,0.0688,0.0585,0.0624,0.0617,0.0667,0.0665,0.0663,0.0583,0,0.0771,0.0747,0.0766,0.0695,0.0667,0.0661,0.0636,0.0618,0.0604,0.0574,0.0598,0.058,0.0631,0.0611,0.0605,0.0644,0.0612,0.0658,0.0642,0.0641,0.0683,0.0607,0.067,0.0607,0.0574,0.0572,0.0571,0,0.0714,0.0721,0.0667,0.0609,0.0588,0.0552,0.048,0.046,0.0446,0.0431,0.0419,0.0444,0.0431,0.048,0.048,0.0496,0.0512,0.0541,0.054,0.0588,0.0662,0.0658,0.059,0.0554,0.0556,0.0557,0.0558,0,0.0626,0.0601,0.0554,0.054,0.0518,0.0469,0.043,0.0407,0.0367,0.0335,0.0293,0.0307,0.0277,0.0316,0.0361,0.0403,0.0351,0.0436,0.0485,0.0488,0.0544,0.0555,0.0411,0.0411,0.0411,0.0412,0.0412,0,0.0542,0.046,0.051,0.0473,0.0407,0.0396,0.0297,0.0274,0.0227,0.0161,0.0205,0.0154,0.0224,0.0218,0.0293,0.0333,0.0294,0.0438,0.0462,0.0523,0.0532,0.05,0.0511,0.0409,0.0409,0.041,0.041,0,0.0381,0.0419,0.0371,0.0376,0.0359,0.0304,0.021,0.0137,0.0113,0.0026,0.0002,-0.0003,-0.0037,0.0036,0.0075,0.0225,0.0287,0.0308,0.0359,0.0393,0.0448,0.0457,0.037,0.0371,0.0371,0.0372,0.0372,0,0.0317,0.0281,0.0293,0.0297,0.0282,0.021,0.0139,0.0082,0.0014,-0.0068,-0.0122,-0.0186,-0.0224,-0.0143,0.0042,0.0159,0.017,0.0355,0.0478,0.0407,0.044,0.0448,0.0456,0.0515,0.0517,0.0518,0.0519,0,0.0208,0.0193,0.0138,0.0149,0.0108,0.0067,-0.0034,-0.0103,-0.0181,-0.0233,-0.0327,-0.0362,-0.0306,-0.0142,0.0033,0.0149,0.0358,0.0387,0.0269,0.0531,0.0542,0.0576,0.0579,0.053,0.0529,0.0528,0.0527,0.0527,0.0108,0.0032,-0.0014,-0.0022,-0.007,-0.011,-0.0201,-0.0276,-0.0387,-0.0486,-0.0459,-0.0455,-0.0218,0.0017,0.0162,0.0332,0.0344,0.0525,0.0521,0.0517,0.0562,0.0576,0.0576,0.0575,0.0575,0.0574,0.0573,0,0.0054,-0.0091,-0.015,-0.0181,-0.0265,-0.0237,-0.035,-0.0424,-0.0558,-0.0557,-0.0591,-0.0293,-0.0099,0.005,0.0345,0.0567,0.0572,0.0604,0.0614,0.0606,0.0598,0.0647,0.0683,0.0683,0.0682,0.0682,0,0,-0.0012,-0.0144,-0.0203,-0.0325,-0.0387,-0.052,-0.0595,-0.0666,-0.0676,-0.0639,-0.0548,-0.0407,-0.0102,0.0166,0.0407,0.0521,0.0497,0.0532,0.0448,0.0427,0.0415,0.0581,0.0652,0,0,0,0,0]}],[{"header":{"parameterUnit":"m.s-1","parameterCategory":2,"la1":30.2991,"la2":30.254,"lo1":-89.0895,"lo2":-89.0444,"dy":0.0017,"dx":0.0017,"nx":28,"ny":28,"refTime":"2024-06-20T21:00:00:Z","depth":"4","parameterNumber":2,"parameterNumberName":"U-component_of_CURRENTS"},"data":[0,0,0,0,0,0,0,0,0,0,0,0,0,0,0,0,0,0,0,0,0,0,0,0,0,0,0,0,0,0,0,0,0,0,0,0,0,0,0,0,0,0,0,0,0,0,0,0,0,0,0,0,0,0,0,0,0,0,-0.0722,-0.0722,0,-0.0721,-0.0721,-0.0721,-0.0731,-0.0731,-0.0731,-0.0731,-0.075,-0.0751,-0.0751,0,0,0,0,0,0,0,0,0,0,0,0,0,-0.0755,-0.0755,-0.0722,-0.0722,-0.0722,-0.0721,-0.0721,-0.0721,-0.0731,-0.0731,-0.0731,-0.0731,-0.075,-0.0751,-0.0751,0,0,0,0,0,0,0,0,0,0,0,0,0,-0.0747,-0.0754,-0.0722,-0.0726,-0.0726,-0.0721,-0.0721,-0.0721,-0.0731,-0.0731,-0.0731,-0.0731,-0.075,-0.0751,-0.0751,-0.0749,0,0,-0.0753,-0.0753,0,0,0,0,0,0,0,0,-0.0748,-0.0746,-0.0725,-0.0725,-0.0726,-0.0725,-0.074,-0.0731,-0.0731,-0.073,-0.0731,-0.0731,-0.0743,-0.0744,-0.0745,-0.075,-0.0751,-0.0753,-0.0753,-0.0753,-0.0754,0,0,0,0,0,0,0,-0.0748,-0.0746,-0.0723,-0.0725,-0.0725,-0.0735,-0.0734,-0.0738,-0.0736,-0.073,-0.073,-0.0728,-0.0743,-0.0744,-0.0745,-0.0751,-0.0753,-0.0753,-0.0754,-0.0754,-0.0808,-0.0809,0,0,0,0,0,0,-0.0744,-0.0747,-0.0723,-0.0723,-0.0736,-0.0734,-0.0733,-0.0726,-0.0736,-0.0737,-0.0728,-0.0729,-0.0743,-0.0744,-0.0746,-0.0798,-0.0753,-0.0754,-0.0754,-0.0806,-0.0808,-0.0809,0,0,0,0,0,0,-0.0745,-0.0742,-0.0723,-0.0734,-0.0732,-0.0733,-0.0725,-0.0726,-0.0735,-0.0734,-0.0736,-0.0738,-0.0743,-0.0745,-0.0765,-0.0796,-0.0754,-0.0755,-0.0805,-0.0807,-0.0808,-0.0867,0,0,0,0,0,0,-0.0746,-0.0742,-0.0739,-0.0734,-0.0731,-0.0723,-0.0725,-0.0726,-0.0732,-0.0733,-0.0743,-0.0744,-0.0744,-0.0765,-0.0766,-0.0796,-0.0755,-0.0804,-0.0806,-0.0808,-0.0864,-0.0871,-0.0876,0,0,0,0,0,-0.0747,-0.0738,-0.0738,-0.0736,-0.0725,-0.0723,-0.0723,-0.0725,-0.0733,-0.0736,-0.0751,-0.0744,-0.0779,-0.0766,-0.0767,-0.0799,-0.0803,-0.0805,-0.0808,-0.0861,-0.0869,-0.0876,0,0,0,0,0,0,-0.0747,-0.0738,-0.0738,-0.0726,-0.0727,-0.0724,-0.0724,-0.0731,-0.0744,-0.075,-0.0755,-0.0757,-0.0785,-0.0782,-0.0767,-0.082,-0.0791,-0.0794,-0.0831,-0.0839,-0.0845,-0.0846,-0.0755,0,0,0,0,0,-0.0746,-0.074,-0.0735,-0.0726,-0.0726,-0.0729,-0.073,-0.0734,-0.0742,-0.0748,-0.076,-0.0775,-0.0795,-0.0808,-0.0815,-0.0843,-0.0835,-0.0865,-0.0871,-0.0877,-0.0878,-0.0883,-0.089,-0.0817,-0.0817,-0.0817,0,0,-0.0741,-0.0738,-0.0733,-0.0727,-0.0727,-0.073,-0.0731,-0.0733,-0.0751,-0.0748,-0.078,-0.0792,-0.0804,-0.0838,-0.0851,-0.0842,-0.0897,-0.088,-0.0885,-0.0883,-0.0887,-0.0894,-0.09,-0.0819,-0.0818,-0.0818,0,0,-0.073,-0.0729,-0.072,-0.0722,-0.0724,-0.0733,-0.0737,-0.0745,-0.0764,-0.0791,-0.0801,-0.083,-0.0855,-0.0877,-0.089,-0.0933,-0.0924,-0.0943,-0.0985,-0.0991,-0.0997,-0.1002,-0.1017,-0.1022,-0.0955,-0.0955,-0.0955,0,-0.0725,-0.0711,-0.0718,-0.0714,-0.0718,-0.0738,-0.0737,-0.0762,-0.0782,-0.0805,-0.0806,-0.0868,-0.0873,-0.0931,-0.0952,-0.0948,-0.0953,-0.0957,-0.0999,-0.1004,-0.1008,-0.1021,-0.1027,-0.0958,-0.0957,-0.0957,-0.0957,0,-0.0704,-0.0699,-0.0696,-0.0702,-0.0715,-0.0714,-0.0749,-0.0778,-0.0809,-0.0835,-0.0895,-0.0918,-0.0951,-0.0973,-0.0978,-0.1027,-0.1022,-0.1,-0.0979,-0.1019,-0.1031,-0.1036,-0.0962,-0.0961,-0.096,-0.0959,0,0,-0.0661,-0.0678,-0.0673,-0.0686,-0.0707,-0.072,-0.0763,-0.0805,-0.084,-0.0891,-0.0934,-0.0996,-0.1013,-0.103,-0.1052,-0.1077,-0.1115,-0.1061,-0.106,-0.1075,-0.1142,-0.1023,-0.1016,-0.1103,-0.1104,-0.1105,-0.1144,0,-0.0636,-0.063,-0.0651,-0.0667,-0.0667,-0.0716,-0.0765,-0.0817,-0.0855,-0.0905,-0.0969,-0.1025,-0.1037,-0.1072,-0.1091,-0.1103,-0.1128,-0.1107,-0.1101,-0.1101,-0.0989,-0.1017,-0.1107,-0.1148,-0.1149,-0.115,-0.115,0,-0.0593,-0.0599,-0.0601,-0.0662,-0.0671,-0.0705,-0.0778,-0.0827,-0.0907,-0.0949,-0.1009,-0.1041,-0.1115,-0.1104,-0.1156,-0.1145,-0.1146,-0.1159,-0.1159,-0.1027,-0.099,-0.1096,-0.1158,-0.1158,-0.1157,-0.1157,-0.1156,0,-0.0544,-0.0567,-0.0575,-0.0586,-0.0656,-0.0697,-0.0761,-0.0838,-0.0887,-0.0987,-0.1023,-0.1092,-0.113,-0.1159,-0.1169,-0.1173,-0.1199,-0.1196,-0.1099,-0.1092,-0.1162,-0.1156,-0.122,-0.122,-0.122,-0.122,-0.122,0,-0.0496,-0.0503,-0.0562,-0.0566,-0.0607,-0.0688,-0.0742,-0.0821,-0.0916,-0.0941,-0.1053,-0.1058,-0.1142,-0.1152,-0.1172,-0.1136,-0.1196,-0.1107,-0.1088,-0.1189,-0.1185,-0.1167,-0.116,-0.1221,-0.1221,-0.1221,-0.122,0,-0.0431,-0.0461,-0.0478,-0.0555,-0.0577,-0.0622,-0.0729,-0.0759,-0.0897,-0.0923,-0.0971,-0.1047,-0.106,-0.1123,-0.1145,-0.1117,-0.112,-0.1091,-0.1203,-0.119,-0.102,-0.1016,-0.1005,-0.1001,-0.0997,-0.0995,-0.0992,0,-0.0402,-0.0399,-0.0447,-0.0454,-0.0489,-0.0555,-0.0579,-0.0725,-0.073,-0.0868,-0.0845,-0.0923,-0.0943,-0.093,-0.0979,-0.1032,-0.1017,-0.1034,-0.1028,-0.1012,-0.0996,-0.0997,-0.0998,-0.0987,-0.0986,-0.0985,-0.0984,0,-0.0356,-0.0371,-0.0385,-0.0382,-0.0404,-0.0414,-0.0458,-0.0464,-0.0592,-0.0706,-0.0732,-0.0791,-0.0781,-0.082,-0.0871,-0.0895,-0.1038,-0.0999,-0.1006,-0.1001,-0.099,-0.0978,-0.0982,-0.0972,-0.0974,-0.0975,-0.0976,0,-0.0329,-0.0318,-0.0331,-0.0323,-0.0327,-0.0289,-0.0321,-0.0339,-0.0399,-0.0553,-0.0511,-0.0636,-0.0705,-0.0741,-0.0765,-0.0804,-0.0805,-0.0812,-0.083,-0.0843,-0.0771,-0.0732,-0.0619,0,0,0,0,0,-0.0303,-0.0279,-0.0273,-0.0265,-0.0253,-0.0251,-0.024,-0.027,-0.0343,-0.0338,-0.0458,-0.0462,-0.0552,-0.0597,-0.061,-0.0665,-0.0787,-0.0673,-0.0797,-0.0907,-0.0921,-0.0851,0,0,0,0,0,0,-0.029,-0.0279,-0.026,-0.0211,-0.0186,-0.0166,-0.0148,-0.0187,-0.0188,-0.0286,-0.0328,-0.0439,-0.0514,-0.0562,-0.0611,-0.0626,-0.0692,-0.0749,-0.0748,-0.09,-0.0912,-0.0923,-0.0855,0,0,0,0,0]},{"header":{"parameterUnit":"m.s-1","parameterCategory":2,"la1":30.2991,"la2":30.254,"lo1":-89.0895,"lo2":-89.0444,"dy":0.0017,"dx":0.0017,"nx":28,"ny":28,"refTime":"2024-06-20T21:00:00:Z","depth":"4","parameterNumber":3,"parameterNumberName":"V-component_of_CURRENTS"},"data":[0,0,0,0,0,0,0,0,0,0,0,0,0,0,0,0,0,0,0,0,0,0,0,0,0,0,0,0,0,0,0,0,0,0,0,0,0,0,0,0,0,0,0,0,0,0,0,0,0,0,0,0,0,0,0,0,0,0,0.0437,0.0437,0,0.0414,0.0414,0.0414,0.0461,0.0463,0.0465,0.0466,0.0496,0.0495,0.0495,0,0,0,0,0,0,0,0,0,0,0,0,0,0.0501,0.0499,0.0437,0.0437,0.0436,0.0414,0.0414,0.0413,0.0461,0.0463,0.0465,0.0467,0.0496,0.0495,0.0495,0,0,0,0,0,0,0,0,0,0,0,0,0,0.0475,0.0499,0.0437,0.0458,0.0459,0.0414,0.0414,0.0413,0.0461,0.0463,0.0465,0.0468,0.0496,0.0495,0.0494,0.0441,0,0,0.0491,0.0491,0,0,0,0,0,0,0,0,0.0476,0.0472,0.0455,0.0456,0.0458,0.0443,0.0447,0.0425,0.046,0.046,0.0466,0.0469,0.0481,0.0482,0.0471,0.0443,0.0444,0.0491,0.0491,0.049,0.049,0,0,0,0,0,0,0,0.0478,0.0474,0.0428,0.0454,0.0456,0.0461,0.046,0.0443,0.0459,0.046,0.0464,0.046,0.0483,0.0472,0.0473,0.0444,0.0491,0.049,0.049,0.0489,0.0432,0.0431,0,0,0,0,0,0,0.0479,0.0475,0.0429,0.0427,0.0473,0.0458,0.0457,0.0445,0.0458,0.0462,0.0458,0.0463,0.0473,0.0474,0.0474,0.0458,0.049,0.0489,0.0489,0.0433,0.0432,0.0431,0,0,0,0,0,0,0.048,0.0475,0.0429,0.0451,0.0446,0.0454,0.0441,0.0444,0.0448,0.0456,0.0461,0.0463,0.0475,0.0475,0.0462,0.0458,0.0489,0.0488,0.0434,0.0432,0.0431,0.0396,0,0,0,0,0,0,0.0482,0.0475,0.0467,0.0451,0.0445,0.0403,0.0439,0.0442,0.0442,0.0448,0.0461,0.0465,0.0476,0.0463,0.0461,0.0457,0.0487,0.0435,0.0433,0.0432,0.0399,0.0394,0.039,0,0,0,0,0,0.0484,0.0459,0.0467,0.0462,0.0434,0.0401,0.0398,0.0412,0.044,0.0429,0.0441,0.0466,0.0451,0.046,0.0458,0.0455,0.0436,0.0434,0.0432,0.0401,0.0395,0.039,0,0,0,0,0,0,0.0477,0.046,0.047,0.044,0.0425,0.041,0.0399,0.041,0.0408,0.0418,0.0441,0.0444,0.0434,0.044,0.045,0.0433,0.0452,0.0449,0.0429,0.0424,0.042,0.0406,0.0486,0,0,0,0,0,0.0471,0.0453,0.0437,0.0414,0.0406,0.0404,0.0396,0.04,0.0395,0.0398,0.0406,0.0416,0.0417,0.0419,0.0414,0.0393,0.0426,0.0392,0.0388,0.0384,0.0371,0.0408,0.0406,0.0424,0.0424,0.0424,0,0,0.0462,0.045,0.044,0.0412,0.0404,0.0366,0.0405,0.0383,0.0354,0.0398,0.0369,0.0394,0.0406,0.039,0.0388,0.04,0.0402,0.0382,0.0378,0.0367,0.0406,0.0404,0.0403,0.0422,0.0423,0.0423,0,0,0.0424,0.0423,0.0395,0.0372,0.0352,0.0342,0.0337,0.0321,0.0323,0.0291,0.0328,0.0349,0.0332,0.0351,0.0357,0.032,0.0375,0.0328,0.0296,0.0332,0.0331,0.0331,0.0398,0.0404,0.0328,0.0328,0.0328,0,0.0417,0.0376,0.038,0.0339,0.0313,0.0329,0.0282,0.0269,0.0251,0.0243,0.0277,0.0289,0.0311,0.0309,0.0307,0.0311,0.0352,0.0318,0.0328,0.0328,0.0328,0.0397,0.0404,0.0326,0.0327,0.0327,0.0327,0,0.0354,0.0319,0.0296,0.0251,0.0221,0.0183,0.0162,0.0142,0.0155,0.0151,0.0157,0.0203,0.0214,0.0238,0.0262,0.0276,0.0313,0.0319,0.0345,0.0325,0.0398,0.0406,0.0324,0.0324,0.0325,0.0325,0,0,0.0346,0.0269,0.0264,0.0225,0.0171,0.0139,0.0082,0.004,0.001,0.0035,0.0016,0.0062,0.0115,0.0126,0.0184,0.0231,0.029,0.0276,0.0279,0.0349,0.0398,0.0349,0.0354,0.0303,0.0304,0.0304,0.046,0,0.0301,0.0215,0.0182,0.0092,0.0045,0.002,-0.0036,-0.0072,-0.008,-0.0098,-0.0023,-0.0006,0.0063,0.0102,0.0148,0.025,0.0303,0.0248,0.04,0.0405,0.0368,0.0357,0.0305,0.0466,0.0468,0.0469,0.047,0,0.0252,0.0201,0.0113,0.0014,-0.0008,-0.0049,-0.0126,-0.0175,-0.0201,-0.02,-0.0167,-0.0118,-0.0035,0.0029,0.0193,0.0158,0.0265,0.0355,0.0363,0.0327,0.0368,0.0483,0.0485,0.0484,0.0483,0.0482,0.0481,0,0.0251,0.0149,0.0082,0.0046,-0.0057,-0.0085,-0.0121,-0.018,-0.0229,-0.0229,-0.0238,-0.0165,-0.0093,0.0033,0.021,0.0208,0.0394,0.0411,0.0471,0.0472,0.049,0.0488,0.0511,0.0511,0.0511,0.051,0.051,0,0.0204,0.0152,0.0093,0.0052,-0.0013,-0.0076,-0.0147,-0.0181,-0.0238,-0.0291,-0.0252,-0.0242,-0.0088,0.0023,0.0181,0.035,0.0375,0.046,0.0494,0.0475,0.047,0.0498,0.0495,0.0516,0.0515,0.0514,0.0513,0,0.0198,0.0152,0.0073,-0.0006,-0.0014,-0.0052,-0.0139,-0.0203,-0.0237,-0.0296,-0.0285,-0.0273,-0.0128,0.0027,0.024,0.0316,0.0487,0.0542,0.053,0.0563,0.0556,0.0548,0.0616,0.0615,0.0614,0.0614,0.0613,0,0.0171,0.0137,0.0067,0.0046,0.0025,-0.0029,-0.0077,-0.0165,-0.0245,-0.0304,-0.0331,-0.024,-0.02,0.0074,0.0224,0.0486,0.0515,0.0591,0.0545,0.0532,0.056,0.0554,0.0548,0.0612,0.0612,0.0612,0.0612,0,0.0121,0.0117,0.0064,0.0052,0.0016,-0.0067,-0.013,-0.0195,-0.031,-0.0341,-0.0349,-0.0255,-0.0123,0.0057,0.0245,0.0435,0.0525,0.0585,0.0587,0.0545,0.0529,0.0556,0.0551,0.0609,0.061,0.061,0.061,0,0.0098,0.0077,0.0048,0.0038,0.0003,-0.0068,-0.013,-0.0211,-0.0294,-0.0377,-0.0362,-0.023,-0.017,0.0033,0.0219,0.0373,0.0406,0.044,0.0451,0.0455,0.0337,0.0288,0.0318,0,0,0,0,0,0.0072,0.0072,0.0042,0.0004,-0.002,-0.003,-0.0157,-0.024,-0.0344,-0.0349,-0.037,-0.0243,-0.0041,0.0038,0.0191,0.0212,0.0436,0.0388,0.0484,0.0597,0.0599,0.0479,0,0,0,0,0,0,0.0047,0.0034,0.0033,0.0005,0.001,-0.0058,-0.0125,-0.0213,-0.0246,-0.0306,-0.0188,-0.0188,0.0028,-0.0072,0.0222,0.0256,0.033,0.0476,0.0478,0.0595,0.0597,0.06,0.0477,0,0,0,0,0]}]]